Location: Unspecified
(40.7945°N, 111.1337°W)
Time: 21:42:51
(UTC-06:00)

Vanguard 1 - Pass Details

Date: 25 June 2019
Orbit: 653 x 3830 km, 34.3° (Epoch: 20 July)

Event Time Altitude Azimuth Distance (km) Brightness Sun altitude
Rises 09:53:34 0° 275° (W) 5,018 13.2 42.3°
Reaches altitude 10° 09:59:29 10° 252° (WSW) 3,311 12.5 43.5°
Maximum altitude 10:02:47 13° 227° (SW) 2,703 12.2 44.1°
Drops below altitude 10° 10:05:32 10° 200° (SSW) 2,636 12.3 44.6°
Sets 10:09:11 0° 171° (S) 3,240 12.9 45.3°
